| time (UTC) | temp F | wind direction | speed knots | gust knots | rain 1hr in | rain 24hr in | rain mn in | humidity % | barometer mb |
| 20260506024507 | 59 | 194 | 7.0 | 16.5 | 0.00 | 0.00 | 0.00 | 83 | 1011.7 |
| 20260506023005 | 59 | 253 | 4.3 | 15.6 | 0.00 | 0.00 | 0.00 | 83 | 1011.8 |
| 20260506021504 | 59 | 211 | 4.3 | 12.2 | 0.00 | 0.00 | 0.00 | 82 | 1011.8 |
| 20260506020004 | 59 | 231 | 5.2 | 15.6 | 0.00 | 0.00 | 0.00 | 81 | 1011.7 |
| 20260506014503 | 60 | 233 | 5.2 | 11.3 | 0.00 | 0.00 | 0.00 | 80 | 1011.6 |
| 20260506013003 | 60 | 161 | 8.7 | 18.2 | 0.00 | 0.00 | 0.00 | 79 | 1011.4 |
| 20260506011501 | 60 | 250 | 6.1 | 15.6 | 0.00 | 0.00 | 0.00 | 78 | 1011.2 |
| 20260506010004 | 60 | 246 | 5.2 | 14.8 | 0.00 | 0.00 | 0.00 | 78 | 1011.0 |
| 20260506004631 | 61 | 29 | 7.0 | 13.9 | 0.00 | 0.00 | 0.00 | 77 | 1010.9 |
| 20260506003113 | 62 | 242 | 5.2 | 14.8 | 0.00 | 0.00 | 0.00 | 75 | 1010.8 |
| 20260506001559 | 61 | 257 | 7.8 | 22.6 | 0.00 | 0.00 | 0.00 | 75 | 1010.6 |
| 20260506000058 | 62 | 136 | 5.2 | 17.4 | 0.00 | 0.00 | 0.00 | 75 | 1010.3 |
| 20260505234635 | 62 | 254 | 4.3 | 17.4 | 0.00 | 0.00 | 0.00 | 75 | 1010.2 |
| 20260505233105 | 62 | 124 | 6.1 | 18.2 | 0.00 | 0.00 | 0.00 | 75 | 1009.8 |
| 20260505231559 | 62 | 113 | 7.0 | 15.6 | 0.00 | 0.00 | 0.00 | 75 | 1009.6 |
| 20260505230054 | 62 | 245 | 6.1 | 14.8 | 0.00 | 0.00 | 0.00 | 74 | 1009.5 |
| 20260505224553 | 62 | 228 | 7.8 | 15.6 | 0.00 | 0.00 | 0.00 | 74 | 1009.5 |
| 20260505223052 | 62 | 134 | 8.7 | 20.9 | 0.00 | 0.00 | 0.00 | 73 | 1009.3 |
| 20260505221551 | 63 | 185 | 7.0 | 26.1 | 0.00 | 0.00 | 0.00 | 72 | 1009.5 |
| 20260505214556 | 64 | 238 | 7.8 | 31.3 | 0.00 | 0.00 | 0.00 | 71 | 1009.3 |
| 20260505213052 | 65 | 130 | 5.2 | 13.9 | 0.00 | 0.00 | 0.00 | 71 | 1008.9 |
| 20260505211552 | 65 | 120 | 7.0 | 20.0 | 0.00 | 0.00 | 0.00 | 71 | 1008.8 |
| 20260505210046 | 65 | 208 | 7.0 | 14.8 | 0.00 | 0.00 | 0.00 | 70 | 1008.9 |
| 20260505204547 | 65 | 241 | 7.0 | 15.6 | 0.00 | 0.00 | 0.00 | 70 | 1008.9 |
| 20260505203043 | 66 | 243 | 5.2 | 14.8 | 0.00 | 0.00 | 0.00 | 69 | 1009.0 |
| 20260505201542 | 66 | 239 | 2.6 | 14.8 | 0.00 | 0.00 | 0.00 | 70 | 1009.1 |
| 20260505200041 | 67 | 316 | 4.3 | 9.6 | 0.00 | 0.00 | 0.00 | 69 | 1009.3 |
| 20260505194542 | 66 | 186 | 4.3 | 15.6 | 0.00 | 0.00 | 0.00 | 70 | 1009.6 |
| 20260505193043 | 66 | 174 | 7.8 | 13.9 | 0.00 | 0.00 | 0.00 | 69 | 1009.8 |
| 20260505191549 | 66 | 178 | 6.1 | 15.6 | 0.00 | 0.00 | 0.00 | 70 | 1010.0 |
| 20260505190033 | 66 | 195 | 5.2 | 13.9 | 0.00 | 0.00 | 0.00 | 71 | 1010.3 |
| 20260505184532 | 66 | 198 | 5.2 | 13.9 | 0.00 | 0.00 | 0.00 | 71 | 1010.5 |
| 20260505183030 | 66 | 176 | 5.2 | 13.0 | 0.00 | 0.00 | 0.00 | 71 | 1010.7 |
| 20260505181529 | 66 | 198 | 6.1 | 14.8 | 0.00 | 0.00 | 0.00 | 72 | 1010.8 |
| 20260505180042 | 65 | 94 | 5.2 | 14.8 | 0.00 | 0.00 | 0.00 | 72 | 1010.9 |
| 20260505174536 | 66 | 88 | 4.3 | 13.9 | 0.00 | 0.00 | 0.00 | 73 | 1010.9 |
| 20260505173026 | 66 | 200 | 5.2 | 13.0 | 0.00 | 0.00 | 0.00 | 72 | 1011.0 |
| 20260505171531 | 66 | 178 | 3.5 | 10.4 | 0.00 | 0.00 | 0.00 | 73 | 1011.1 |
| 20260505170031 | 66 | 164 | 5.2 | 11.3 | 0.00 | 0.00 | 0.00 | 71 | 1011.2 |
| 20260505164523 | 67 | 230 | 3.5 | 9.6 | 0.00 | 0.00 | 0.00 | 70 | 1011.3 |
| 20260505163022 | 68 | 235 | 3.5 | 8.7 | 0.00 | 0.00 | 0.00 | 71 | 1011.4 |
| 20260505161521 | 68 | 167 | 2.6 | 7.8 | 0.00 | 0.00 | 0.00 | 70 | 1011.6 |
| 20260505153022 | 67 | 130 | 2.6 | 7.0 | 0.00 | 0.00 | 0.00 | 70 | 1011.7 |
| 20260505151513 | 67 | 164 | 2.6 | 7.0 | 0.00 | 0.00 | 0.00 | 71 | 1012.0 |
| 20260505124551 | 61 | 223 | 1.7 | 6.1 | 0.00 | 0.00 | 0.00 | 81 | 1011.7 |
| 20260505123106 | 60 | 194 | 1.7 | 7.8 | 0.00 | 0.00 | 0.00 | 84 | 1011.7 |
| 20260505121546 | 59 | 82 | 0.9 | 3.5 | 0.00 | 0.00 | 0.00 | 85 | 1011.6 |
| 20260505120046 | 58 | 94 | 0.9 | 4.3 | 0.00 | 0.00 | 0.00 | 87 | 1011.8 |
| 20260505114556 | 57 | 229 | 0.9 | 2.6 | 0.00 | 0.00 | 0.00 | 89 | 1011.8 |
| 20260505113040 | 56 | 258 | 0.0 | 2.6 | 0.00 | 0.00 | 0.00 | 89 | 1011.8 |
| 20260505111552 | 56 | 240 | 0.9 | 3.5 | 0.00 | 0.00 | 0.00 | 91 | 1011.8 |
| 20260505101533 | 53 | 239 | 0.9 | 6.1 | 0.00 | 0.00 | 0.00 | 94 | 1011.1 |
| 20260505100033 | 52 | 238 | 0.9 | 2.6 | 0.00 | 0.00 | 0.00 | 94 | 1010.8 |
| 20260505094524 | 52 | 246 | 0.0 | 1.7 | 0.00 | 0.00 | 0.00 | 94 | 1010.6 |
| 20260505093027 | 52 | 245 | 0.9 | 2.6 | 0.00 | 0.00 | 0.00 | 93 | 1010.7 |
| 20260505091523 | 52 | 257 | 0.0 | 3.5 | 0.00 | 0.00 | 0.00 | 93 | 1010.8 |
| 20260505090020 | 52 | 257 | 0.0 | 3.5 | 0.00 | 0.00 | 0.00 | 93 | 1010.8 |
| 20260505084520 | 52 | 247 | 0.0 | 2.6 | 0.00 | 0.00 | 0.00 | 93 | 1010.7 |
| 20260505083020 | 53 | 246 | 0.9 | 4.3 | 0.00 | 0.00 | 0.00 | 92 | 1010.8 |
| 20260505081521 | 53 | 233 | 1.7 | 6.1 | 0.00 | 0.00 | 0.00 | 92 | 1010.9 |
| 20260505080028 | 53 | 238 | 0.9 | 4.3 | 0.00 | 0.00 | 0.00 | 92 | 1010.9 |
| 20260505074513 | 53 | 237 | 0.0 | 3.5 | 0.00 | 0.00 | 0.00 | 92 | 1010.7 |
| 20260505073015 | 53 | 252 | 0.0 | 4.3 | 0.00 | 0.00 | 0.00 | 92 | 1010.8 |
| 20260505071510 | 53 | 215 | 0.9 | 3.5 | 0.00 | 0.00 | 0.00 | 91 | 1010.8 |
| 20260505070009 | 53 | 214 | 0.9 | 4.3 | 0.00 | 0.00 | 0.00 | 91 | 1010.9 |
| 20260505064508 | 53 | 239 | 1.7 | 5.2 | 0.00 | 0.00 | 0.00 | 91 | 1010.8 |
| 20260505063006 | 53 | 242 | 1.7 | 5.2 | 0.00 | 0.00 | 0.00 | 91 | 1010.8 |
| 20260505061505 | 53 | 209 | 1.7 | 7.8 | 0.00 | 0.00 | 0.00 | 91 | 1011.1 |
| 20260505060003 | 53 | 233 | 0.9 | 7.8 | 0.00 | 0.00 | 0.00 | 90 | 1011.1 |
| 20260505054502 | 53 | 323 | 2.6 | 7.8 | 0.00 | 0.00 | 0.00 | 90 | 1011.2 |
| 20260505053112 | 53 | 258 | 2.6 | 4.3 | 0.00 | 0.00 | 0.00 | 90 | 1011.2 |
| 20260505051559 | 53 | 231 | 2.6 | 6.1 | 0.00 | 0.00 | 0.00 | 90 | 1011.3 |
| 20260505041610 | 54 | 247 | 1.7 | 4.3 | 0.00 | 0.00 | 0.00 | 87 | 1011.6 |
| 20260505040047 | 54 | 243 | 0.9 | 5.2 | 0.00 | 0.00 | 0.00 | 86 | 1011.7 |
| 20260505034547 | 54 | 150 | 0.9 | 6.1 | 0.00 | 0.00 | 0.00 | 86 | 1011.6 |
| 20260505033045 | 54 | 246 | 0.9 | 5.2 | 0.00 | 0.00 | 0.00 | 85 | 1011.7 |
| 20260505031543 | 55 | 259 | 1.7 | 5.2 | 0.00 | 0.00 | 0.00 | 84 | 1011.7 |
| 20260505030044 | 55 | 205 | 1.7 | 4.3 | 0.00 | 0.00 | 0.00 | 84 | 1011.7 |